Location: Puketoi
(40.5833°S, 176.0167°E)
Time: 15:10:16
(UTC+00:00)

PAYLOAD A - Pass Details

Date: 27 September 2023
Orbit: 691 x 830 km, 98.5° (Epoch: 10 December)

Event Time Altitude Azimuth Distance (km) Brightness Sun altitude
Exits shadow 16:08:16 15° 229° (SW) 2,129 6.0 -20.9°
Drops below altitude 10° 16:09:27 10° 220° (SW) 2,463 6.4 -20.7°
Sets 16:12:19 0° 206° (SSW) 3,410 7.3 -20.2°
